Location: Corralito
(14.1667°N, 87.1833°W)
Time: 08:19:37
(UTC+00:00)

Nadezhda 4 Rocket - Pass Details

Date: 08 October 2020
Orbit: 949 x 993 km, 82.9° (Epoch: 20 October)

Event Time Altitude Azimuth Distance (km) Brightness Sun altitude
Rises 00:49:45 0° 333° (NNW) 3,636 7.3 -19.2°
Reaches altitude 10° 00:52:46 10° 319° (NW) 2,696 6.8 -20.0°
Maximum altitude 00:57:25 23° 270° (W) 1,944 6.4 -21.1°
Drops below altitude 10° 01:02:07 10° 221° (SW) 2,718 6.9 -22.2°
Sets 01:05:12 0° 206° (SSW) 3,672 7.4 -23.0°
